Change the Weather History Date:

Saturday, January 4, 2014

  Actual Average (KEYE) Record (KEYE)
Temperature  
Mean Temperature 26 °F 28 °F  
Max Temperature 36 °F 35 °F 64 °F (1998)
Min Temperature 15 °F 21 °F -5 °F (1999)
Degree Days  
Heating Degree Days 40 37  
Month to date heating degree days 148  
Since 1 July heating degree days 2204  
Cooling Degree Days 0 0  
Month to date cooling degree days 0  
Year to date cooling degree days 0  
Moisture  
Dew Point 14 °F    
Average Humidity 56    
Maximum Humidity 67    
Minimum Humidity 47    
Precipitation  
Precipitation 0.00 in 0.11 in 1.72 in (2004)
Month to date precipitation 0.43  
Year to date precipitation 0.43  
Sea Level Pressure  
Sea Level Pressure 30.02 in    
Wind  
Wind Speed 14 mph (SSW)    
Max Wind Speed 23 mph    
Max Gust Speed 31 mph    
Visibility 10 miles    
Events      
T = Trace of Precipitation, MM = Missing Value Source: NWS Daily Summary

Daily Weather History Graph

Daily Weather History Graph

Search for Another Location

Airport or City:

Trip Planner

Search our weather history database for the weather conditions in past years. The results will help you decide how hot, cold, wet, or windy it might be!

Date:

Astronomy

Jan. 04, 2014 Rise Set
Actual Time 8:07 AM EST 5:33 PM EST
Civil Twilight 7:36 AM EST 6:03 PM EST
Nautical Twilight 7:03 AM EST 6:37 PM EST
Astronomical Twilight 6:30 AM EST 7:10 PM EST
Moon 10:12 AM EST (1/4) 9:52 PM EST (1/4)
Length of Visible Light 10h 26m
Length of Day
9h 25m
Waxing Crescent, 15% of the Moon is Illuminated
Jan 4
Waxing Crescent
Jan 7
First Quarter
Jan 15
Full
Jan 24
Last Quarter
Jan 30
New

Hourly Weather History & Observations

Time (EST) Temp. Windchill Dew Point Humidity Pressure Visibility Wind Dir Wind Speed Gust Speed Precip Events Conditions
12:15 AM 15.8 °F 0.9 °F 6.3 °F 66% 30.13 in 10.0 mi South 15.0 mph - N/A   Clear
12:35 AM 15.8 °F 0.3 °F 6.4 °F 67% 30.11 in 10.0 mi South 16.1 mph 20.7 mph N/A   Clear
12:55 AM 15.8 °F 1.4 °F 6.4 °F 67% 30.11 in 10.0 mi South 13.8 mph 19.6 mph N/A   Clear
1:15 AM 15.8 °F 0.9 °F 6.6 °F 67% 30.10 in 10.0 mi South 15.0 mph 21.9 mph N/A   Clear
1:35 AM 16.2 °F 1.9 °F 6.8 °F 67% 30.09 in 10.0 mi South 13.8 mph 21.9 mph N/A   Clear
1:55 AM 16.3 °F 2.7 °F 6.8 °F 66% 30.09 in 10.0 mi South 12.7 mph - N/A   Clear
2:15 AM 16.7 °F 1.0 °F 7.2 °F 66% 30.08 in 10.0 mi South 17.3 mph 23.0 mph N/A   Clear
2:35 AM 17.1 °F 2.5 °F 7.2 °F 65% 30.08 in 10.0 mi South 15.0 mph 21.9 mph N/A   Clear
2:55 AM 17.1 °F 3.0 °F 6.8 °F 64% 30.08 in 10.0 mi South 13.8 mph 19.6 mph N/A   Clear
3:15 AM 16.7 °F 2.6 °F 6.8 °F 65% 30.08 in 10.0 mi South 13.8 mph 20.7 mph N/A   Clear
3:35 AM 16.7 °F 3.8 °F 6.8 °F 65% 30.08 in 10.0 mi South 11.5 mph 19.6 mph N/A   Clear
3:55 AM 16.7 °F 3.2 °F 6.8 °F 65% 30.08 in 10.0 mi South 12.7 mph - N/A   Clear
4:15 AM 17.1 °F 3.6 °F 7.0 °F 65% 30.07 in 10.0 mi South 12.7 mph 18.4 mph N/A   Clear
4:35 AM 17.2 °F 4.5 °F 7.0 °F 64% 30.06 in 10.0 mi South 11.5 mph - N/A   Clear
4:55 AM 17.6 °F 3.7 °F 7.2 °F 64% 30.05 in 10.0 mi South 13.8 mph - N/A   Clear
5:15 AM 18.1 °F 3.9 °F 7.2 °F 62% 30.04 in 10.0 mi South 15.0 mph 20.7 mph N/A   Clear
5:35 AM 18.5 °F 3.8 °F 7.3 °F 62% 30.03 in 10.0 mi South 16.1 mph 21.9 mph N/A   Clear
5:55 AM 19.0 °F 5.6 °F 7.3 °F 60% 30.03 in 10.0 mi South 13.8 mph - N/A   Clear
6:15 AM 19.4 °F 4.5 °F 7.5 °F 60% 30.02 in 10.0 mi South 17.3 mph 23.0 mph N/A   Clear
6:35 AM 20.3 °F 6.1 °F 7.5 °F 58% 30.02 in 10.0 mi South 16.1 mph 21.9 mph N/A   Clear
6:55 AM 20.8 °F 6.8 °F 7.7 °F 57% 30.02 in 10.0 mi South 16.1 mph 20.7 mph N/A   Clear
7:15 AM 21.2 °F 7.8 °F 7.7 °F 56% 30.02 in 10.0 mi SSW 15.0 mph 20.7 mph N/A   Clear
7:35 AM 21.2 °F 7.3 °F 7.9 °F 57% 30.02 in 10.0 mi South 16.1 mph 20.7 mph N/A   Clear
7:55 AM 22.1 °F 9.5 °F 8.4 °F 56% 30.02 in 10.0 mi South 13.8 mph 21.9 mph N/A   Clear
8:15 AM 22.8 °F 9.9 °F 8.6 °F 55% 30.02 in 10.0 mi South 15.0 mph 24.2 mph N/A   Clear
8:35 AM 23.0 °F 9.2 °F 9.5 °F 56% 30.01 in 10.0 mi South 17.3 mph 25.3 mph N/A   Clear
8:55 AM 24.1 °F 10.6 °F 10.2 °F 56% 30.01 in 10.0 mi South 17.3 mph 24.2 mph N/A   Clear
9:15 AM 24.8 °F 10.0 °F 10.4 °F 54% 30.01 in 10.0 mi SSW 21.9 mph 28.8 mph N/A   Clear
9:35 AM 25.5 °F 10.6 °F 11.1 °F 54% 30.01 in 10.0 mi SSW 23.0 mph 29.9 mph N/A   Clear
9:55 AM 26.2 °F 13.8 °F 11.1 °F 53% 30.03 in 10.0 mi SSW 16.1 mph 25.3 mph N/A   Scattered Clouds
10:15 AM 26.4 °F 14.0 °F 11.5 °F 53% 30.03 in 10.0 mi SSW 16.1 mph 20.7 mph N/A   Clear
10:35 AM 27.5 °F 14.6 °F 12.0 °F 52% 30.03 in 10.0 mi SSW 18.4 mph 25.3 mph N/A   Clear
10:55 AM 28.6 °F 15.6 °F 12.7 °F 52% 30.03 in 10.0 mi SSW 19.6 mph 27.6 mph N/A   Clear
11:15 AM 29.3 °F 17.3 °F 13.3 °F 51% 30.03 in 10.0 mi SSW 17.3 mph 29.9 mph N/A   Clear
11:35 AM 29.8 °F 18.0 °F 13.8 °F 51% 30.03 in 10.0 mi SSW 17.3 mph 26.5 mph N/A   Clear
11:55 AM 30.2 °F 17.8 °F 14.2 °F 51% 30.03 in 10.0 mi SW 19.6 mph 27.6 mph N/A   Clear
12:15 PM 30.7 °F 18.8 °F 14.9 °F 52% 30.02 in 10.0 mi SSW 18.4 mph 25.3 mph N/A   Clear
12:35 PM 31.3 °F 20.3 °F 15.6 °F 52% 30.00 in 10.0 mi SSW 16.1 mph 23.0 mph N/A   Clear
12:55 PM 31.5 °F 19.1 °F 15.4 °F 52% 29.99 in 10.0 mi SSW 20.7 mph 26.5 mph N/A   Clear
1:15 PM 31.8 °F 20.6 °F 15.8 °F 52% 29.99 in 10.0 mi SSW 17.3 mph 25.3 mph N/A   Clear
1:35 PM 32.4 °F 20.9 °F 16.3 °F 52% 29.97 in 10.0 mi SSW 18.4 mph 25.3 mph N/A   Clear
1:55 PM 34.0 °F 22.4 °F 16.5 °F 49% 29.97 in 10.0 mi SSW 20.7 mph 27.6 mph N/A   Clear
2:15 PM 34.9 °F 23.9 °F 17.2 °F 49% 29.96 in 10.0 mi SSW 19.6 mph 26.5 mph N/A   Clear
2:35 PM 35.6 °F 25.5 °F 17.6 °F 48% 29.96 in 10.0 mi SSW 17.3 mph 27.6 mph N/A   Clear
2:55 PM 35.6 °F 24.2 °F 17.4 °F 48% 29.96 in 10.0 mi SSW 21.9 mph 28.8 mph N/A   Clear
3:15 PM 36.0 °F 25.0 °F 17.4 °F 47% 29.96 in 10.0 mi SSW 20.7 mph 31.1 mph N/A   Clear
3:35 PM 35.6 °F 25.9 °F 17.6 °F 48% 29.96 in 10.0 mi SSW 16.1 mph 28.8 mph N/A   Mostly Cloudy
3:55 PM 36.0 °F 26.3 °F 17.6 °F 47% 29.97 in 10.0 mi SSW 16.1 mph - N/A   Mostly Cloudy
4:15 PM 35.8 °F 26.5 °F 18.1 °F 49% 29.97 in 10.0 mi SSW 15.0 mph 20.7 mph N/A   Mostly Cloudy
4:35 PM 35.8 °F 27.8 °F 18.3 °F 49% 29.97 in 10.0 mi SSW 11.5 mph - N/A   Mostly Cloudy
4:55 PM 35.8 °F 27.8 °F 18.5 °F 50% 29.97 in 10.0 mi SSW 11.5 mph - N/A   Overcast
5:15 PM 35.8 °F 26.9 °F 18.3 °F 49% 29.97 in 10.0 mi SSW 13.8 mph 20.7 mph N/A   Overcast
5:35 PM 35.6 °F 28.6 °F 18.7 °F 50% 29.97 in 10.0 mi SSW 9.2 mph - N/A   Overcast
5:55 PM 35.1 °F 30.1 °F 19.4 °F 53% 29.97 in 10.0 mi SSW 5.8 mph - N/A   Overcast
6:15 PM 34.9 °F 30.8 °F 20.3 °F 55% 29.97 in 10.0 mi SSW 4.6 mph - N/A   Overcast
6:35 PM 35.6 °F 30.7 °F 19.4 °F 52% 29.98 in 10.0 mi SSW 5.8 mph - N/A   Overcast
6:55 PM 35.4 °F 31.5 °F 19.2 °F 52% 29.99 in 10.0 mi SSW 4.6 mph - N/A   Overcast
7:15 PM 35.1 °F 31.0 °F 19.4 °F 53% 29.99 in 10.0 mi SSW 4.6 mph - N/A   Overcast
7:35 PM 34.9 °F 30.8 °F 19.9 °F 55% 30.00 in 10.0 mi SSW 4.6 mph - N/A   Overcast
7:55 PM 34.3 °F 31.4 °F 20.7 °F 57% 30.00 in 10.0 mi SSW 3.5 mph - N/A   Overcast
8:15 PM 33.6 °F 29.4 °F 21.7 °F 62% 30.01 in 10.0 mi South 4.6 mph - N/A   Overcast
8:35 PM 35.2 °F 28.8 °F 19.8 °F 53% 30.01 in 10.0 mi SSW 8.1 mph - N/A   Overcast
8:55 PM 35.6 °F 30.7 °F 19.9 °F 53% 30.00 in 10.0 mi SSW 5.8 mph - N/A   Overcast
9:15 PM 35.6 °F 29.9 °F 19.9 °F 53% 30.01 in 10.0 mi SSW 6.9 mph - N/A   Overcast
9:35 PM 35.2 °F 30.3 °F 20.3 °F 55% 30.00 in 10.0 mi South 5.8 mph - N/A   Overcast
9:55 PM 35.2 °F 31.2 °F 20.7 °F 55% 30.00 in 10.0 mi SSW 4.6 mph - N/A   Overcast
10:15 PM 35.2 °F 30.3 °F 20.5 °F 55% 30.01 in 10.0 mi South 5.8 mph - N/A   Overcast
10:35 PM 34.7 °F 29.6 °F 21.0 °F 57% 30.01 in 10.0 mi South 5.8 mph - N/A   Overcast
10:55 PM 35.8 °F 30.1 °F 19.9 °F 53% 30.00 in 10.0 mi South 6.9 mph - N/A   Overcast
11:15 PM 34.9 °F 29.9 °F 20.5 °F 56% 30.00 in 10.0 mi South 5.8 mph - N/A   Overcast
11:35 PM 35.1 °F 30.1 °F 20.5 °F 55% 30.00 in 10.0 mi South 5.8 mph - N/A   Overcast
11:55 PM 36.5 °F 30.3 °F 19.9 °F 51% 29.99 in 10.0 mi SSW 8.1 mph 19.6 mph N/A   Overcast